Find Ibuki 2

NORAD ID: 43672 Int'l Des: 2018-084 Owner: JAXA Country: J operational
LEOCIRCULARRETROGRADESSO

リアルタイム位置

3D地球を読み込み中...

Ibuki 2について

説明を読み込み中...

次回通過

Passes for default location (London). Set your location on the main map for personalized predictions.

高度履歴

Loading altitude history...

軌道要素

1 43672U 18084B 26105.79953022 .00000502 00000-0 66253-4 0 9997
2 43672 97.8719 218.0831 0001438 94.1389 265.9990 14.84237217404308
Epoch: Apr 15, 2026 • Age: 7 hours

現在のステータス

高度 627.8 km
速度 7.55 km/s
衛星直下点 74.91°N, 167.05°W
打ち上げ日 Oct 29, 2018
運用期間 7.4 years
タイプ other

技術仕様

分類 Payload
質量 1750.00 kg
乾燥質量 1700.00 kg
総質量 1750.00 kg
長さ 5.30 m
直径 2.00 m
スパン 16.50 m
形状 Box + 2 Pan
製造者 MELCO
バスタイプ GOSAT
フェーズステータス In Orbit
所有者/国 JAXA/J

Most Searched